User: anonymous   Login
Location: Unspecified
(0.0000°N, 0.0000°E)
Time: 20:16:33
(UTC+00:00)
Language:

TBA - TO BE ASSIGNED - Orbit

View from above orbital plane
View from above orbital plane
View from above satellite
View from above satellite

Ground track
Ground track

The orbit is defined by the following mean orbital elements,

1 68028U          26145.39311919 +.00000000 +00000-0 +42744-3 0 00005
2 68028  97.2840  93.4231 0001848  99.1576 260.9876 15.33443135    06
Epoch (UTC): 25 May 2026 09:26:05
Eccentricity: 0.0001848
inclination: 97.2840°
perigee height: 464 km
apogee height: 467 km
right ascension of ascending node: 93.4231°
argument of perigee: 99.1576°
revolutions per day: 15.33443135
mean anomaly at epoch: 260.9876°

The dashed part of the orbit path shows where the satellite is in the earth's shadow,  

DLR